Hoquiam, WA
on Tuesday, November 6, 2012

Tuesday
Previous Day Next Day
Daily Summary
 ActualAverageRecord
Temperature
Mean Temperature °F 48°F  
Max Temperature 55°F 53°F 63°F (1976)
Min Temperature 44°F 42°F 30°F (2003)
Degree Days
Heating Degree Days 16 17  
Month to date heating degree days 100  
Cooling Degree Days 0 0  
Month to date cooling degree days 0  
Year to date cooling degree days 23  
Moisture
Dew Point 49°F   
Average Humidity 92    
Maximum Humidity 100    
Minimum Humidity 80    
Precipitation
Precipitation 0.09 in 0.35 in 4.03 in (2006)
Month to date precipitation 2.08  
Year to date precipitation 48.50  
Wind
Wind Speed 9 mph   
Max Wind Speed 16 mph   
Max Gust Speed 20 mph   
Visibility 8 miles   
Events Rain   

Key: T is trace of precipitation, MM is missing value
Source: NWS Daily Summary
Time(PST)TemperatureDew PointHumidity Pressure Visibility Wind DirectionWind SpeedGust SpeedPrecipitationEvents Conditions
12:53 AM 48.9°F 43.0°F 80% 30.13 in 10.0 miles NE 8.1 mph - N/A   Clear
1:53 AM 46.9°F 44.1°F 90% 30.11 in 10.0 miles ENE 9.2 mph - N/A   Clear
2:53 AM 46.9°F 44.1°F 90% 30.10 in 10.0 miles East 9.2 mph - N/A   Clear
3:53 AM 46.0°F 44.1°F 93% 30.09 in 10.0 miles ENE 8.1 mph - N/A   Clear
4:53 AM 46.0°F 44.1°F 93% 30.06 in 10.0 miles ENE 9.2 mph - N/A   Clear
5:53 AM 45.0°F 44.1°F 97% 30.06 in 10.0 miles ENE 6.9 mph - N/A   Scattered Clouds
6:45 AM 44.6°F 44.6°F 100% 30.04 in 10.0 miles ENE 5.8 mph - N/A   Mostly Cloudy
6:53 AM 46.0°F 44.1°F 93% 30.05 in 10.0 miles ENE 6.9 mph - N/A   Mostly Cloudy
7:37 AM 46.4°F 44.6°F 93% 30.04 in 9.0 miles East 9.2 mph - N/A   Overcast
7:53 AM 46.0°F 45.0°F 96% 30.05 in 7.0 miles ENE 9.2 mph - N/A   Overcast
8:09 AM 46.4°F 44.6°F 93% 30.04 in 9.0 miles ENE 9.2 mph - N/A   Overcast
8:53 AM 48.0°F 46.0°F 93% 30.04 in 10.0 miles ENE 8.1 mph - N/A   Partly Cloudy
9:53 AM 51.1°F 48.0°F 89% 30.02 in 8.0 miles ENE 8.1 mph - N/A   Overcast
10:08 AM 51.8°F 48.2°F 88% 30.01 in 8.0 miles ENE 8.1 mph - N/A   Overcast
10:31 AM 51.8°F 48.2°F 88% 30.00 in 7.0 miles ENE 5.8 mph - N/A   Overcast
10:53 AM 53.1°F 48.9°F 86% 30.01 in 8.0 miles NE 5.8 mph - N/A   Overcast
11:24 AM 55.4°F 51.8°F 88% 30.01 in 9.0 miles Calm Calm - N/A   Overcast
11:53 AM 55.0°F 53.1°F 93% 30.02 in 10.0 miles South 9.2 mph - N/A   Overcast
12:11 PM 55.4°F 53.6°F 94% 30.01 in 10.0 miles South 11.5 mph - N/A   Overcast
12:20 PM 55.4°F 51.8°F 88% 30.00 in 2.0 miles South 10.4 mph - N/A   Overcast
12:37 PM 53.6°F 53.6°F 100% 30.00 in 2.5 miles South 8.1 mph - N/A   Overcast
12:48 PM 53.6°F 53.6°F 100% 30.00 in 4.0 miles South 8.1 mph - N/A   Overcast
12:53 PM 55.0°F 54.0°F 96% 30.01 in 4.0 miles South 9.2 mph - N/A   Overcast
1:03 PM 55.4°F 53.6°F 94% 30.00 in 2.5 miles South 10.4 mph - N/A   Overcast
1:21 PM 55.4°F 53.6°F 94% 30.00 in 8.0 miles South 9.2 mph - 0.01 in   Overcast
1:53 PM 55.9°F 53.1°F 90% 30.01 in 10.0 miles South 11.5 mph - 0.01 in   Overcast
2:33 PM 55.4°F 53.6°F 94% 30.01 in 8.0 miles SSW 15.0 mph - 0.00 in Rain Light Rain
2:53 PM 55.0°F 53.1°F 93% 30.03 in 5.0 miles SSW 11.5 mph - 0.01 in Rain Light Rain
3:20 PM 53.6°F 51.8°F 94% 30.02 in 4.0 miles SW 10.4 mph - 0.04 in Rain Light Rain
3:53 PM 54.0°F 52.0°F 93% 30.04 in 8.0 miles SW 16.1 mph - 0.07 in Rain Light Rain
4:06 PM 53.6°F 51.8°F 94% 30.02 in 9.0 miles SSW 13.8 mph - 0.00 in   Overcast
4:53 PM 54.0°F 51.1°F 90% 30.03 in 8.0 miles WSW 12.7 mph 19.6 mph 0.00 in   Overcast
5:19 PM 53.6°F 51.8°F 94% 30.02 in 10.0 miles WSW 8.1 mph - N/A   Mostly Cloudy
5:53 PM 54.0°F 50.0°F 86% 30.04 in 10.0 miles West 11.5 mph - N/A   Mostly Cloudy
6:53 PM 53.1°F 50.0°F 89% 30.04 in 10.0 miles WSW 8.1 mph - N/A   Mostly Cloudy
7:08 PM 53.6°F 51.8°F 94% 30.04 in 10.0 miles WSW 9.2 mph - N/A   Mostly Cloudy
7:37 PM 51.8°F 50.0°F 94% 30.04 in 10.0 miles West 8.1 mph - N/A   Mostly Cloudy
7:53 PM 52.0°F 48.9°F 89% 30.06 in 10.0 miles West 8.1 mph - N/A   Scattered Clouds
8:53 PM 52.0°F 48.0°F 86% 30.07 in 10.0 miles West 10.4 mph - N/A   Scattered Clouds
9:53 PM 50.0°F 46.0°F 86% 30.08 in 10.0 miles WSW 4.6 mph - N/A   Partly Cloudy
10:53 PM 52.0°F 48.0°F 86% 30.09 in 10.0 miles WSW 5.8 mph - N/A   Mostly Cloudy
11:53 PM 50.0°F 45.0°F 83% 30.10 in 10.0 miles West 6.9 mph - N/A   Mostly Cloudy
Moon Phase
Nov. 06 Nov. 06 Nov. 13 Nov. 20 Nov. 28
Sunrise:07:06 AM (PST) Moon Rise:11:41 PM (PST)11/6
Sunset:04:51 PM (PST) Moon Set:12:58 PM (PST)11/6

Copyright © 2014 The Weather Underground, Inc.